When you browse on this site, cookies collect data to enhance your experience and personalize the content and advertising you see.
Visit our Privacy Policy to learn more. By continuing to use the site, you agree to this use of cookies and data.

Hourly Weather Taydakovo

Today, 7 July, Tuesday

Time Temperature Precipitation Wind Pressure Humidity
00:00 +22°C° 0 mm 0 mps 751 mmHg 70%
01:00 +22°C° 0 mm 0 mps 752 mmHg 72%
02:00 +21°C° 0 mm 0 mps 752 mmHg 74%
03:00 +23°C° 0 mm 1 mps 752 mmHg 71%
04:00 +24°C° 0 mm 1 mps 752 mmHg 71%
05:00 +23°C° 0 mm 0 mps 752 mmHg 70%
06:00 +24°C° 0 mm 0 mps 752 mmHg 69%
07:00 +28°C° 0 mm 1 mps 752 mmHg 65%
08:00 +29°C° 0 mm 1 mps 752 mmHg 61%
09:00 +30°C° 0 mm 1 mps 752 mmHg 56%
10:00 +31°C° 0 mm 1 mps 752 mmHg 53%
11:00 +34°C° 0 mm 2 mps 752 mmHg 50%
12:00 +35°C° 0 mm 2 mps 752 mmHg 47%
13:00 +35°C° 0 mm 2 mps 752 mmHg 46%
14:00 +35°C° 0 mm 2 mps 752 mmHg 45%
15:00 +36°C° 0 mm 2 mps 752 mmHg 44%
16:00 +35°C° 0 mm 1 mps 752 mmHg 48%
17:00 +34°C° 0 mm 1 mps 752 mmHg 52%
18:00 +32°C° 0 mm 0 mps 752 mmHg 55%
19:00 +32°C° 0 mm 1 mps 752 mmHg 59%
20:00 +29°C° 0 mm 1 mps 752 mmHg 62%
21:00 +27°C° 0 mm 1 mps 752 mmHg 65%
22:00 +27°C° 0 mm 1 mps 752 mmHg 65%
23:00 +26°C° 0 mm 1 mps 752 mmHg 65%

Tomorrow, 8 July, Wednesday

Time Temperature Precipitation Wind Pressure Humidity
00:00 +25°C° 0 mm 1 mps 752 mmHg 65%
01:00 +25°C° 0 mm 2 mps 752 mmHg 66%
02:00 +24°C° 0 mm 2 mps 752 mmHg 67%
03:00 +24°C° 0 mm 2 mps 753 mmHg 67%
04:00 +24°C° 0 mm 2 mps 753 mmHg 68%
05:00 +25°C° 0 mm 2 mps 753 mmHg 69%
06:00 +26°C° 0 mm 2 mps 753 mmHg 69%
07:00 +27°C° 0 mm 2 mps 753 mmHg 65%
08:00 +29°C° 0 mm 3 mps 753 mmHg 62%
09:00 +30°C° 0 mm 3 mps 753 mmHg 58%
10:00 +31°C° 0 mm 3 mps 753 mmHg 55%
11:00 +34°C° 0 mm 3 mps 753 mmHg 52%
12:00 +35°C° 0 mm 3 mps 753 mmHg 50%
13:00 +35°C° 0 mm 3 mps 753 mmHg 49%
14:00 +35°C° 0 mm 3 mps 753 mmHg 49%
15:00 +36°C° 0 mm 3 mps 753 mmHg 48%
16:00 +35°C° 0 mm 3 mps 752 mmHg 54%
17:00 +34°C° 0 mm 3 mps 752 mmHg 59%
18:00 +33°C° 0 mm 3 mps 752 mmHg 65%
19:00 +31°C° 0 mm 3 mps 752 mmHg 65%
20:00 +29°C° 0 mm 3 mps 752 mmHg 66%
21:00 +27°C° 0 mm 4 mps 752 mmHg 66%
22:00 +26°C° 0 mm 3 mps 752 mmHg 69%
23:00 +26°C° 0 mm 3 mps 752 mmHg 73%

Day after tomorrow, 9 July, Thursday

Time Temperature Precipitation Wind Pressure Humidity
00:00 +25°C° 0 mm 3 mps 752 mmHg 76%
01:00 +24°C° 0 mm 3 mps 752 mmHg 76%
02:00 +24°C° 0 mm 3 mps 752 mmHg 76%
03:00 +22°C° 0 mm 3 mps 752 mmHg 76%
04:00 +24°C° 0 mm 3 mps 753 mmHg 76%
05:00 +24°C° 0 mm 3 mps 753 mmHg 75%
06:00 +25°C° 0 mm 4 mps 753 mmHg 75%
07:00 +26°C° 0 mm 4 mps 753 mmHg 70%
08:00 +28°C° 0 mm 4 mps 753 mmHg 64%
09:00 +30°C° 0 mm 4 mps 753 mmHg 59%
10:00 +32°C° 0 mm 5 mps 753 mmHg 55%
11:00 +33°C° 0 mm 5 mps 753 mmHg 52%
12:00 +34°C° 0 mm 5 mps 752 mmHg 48%
13:00 +34°C° 0 mm 5 mps 752 mmHg 47%
14:00 +34°C° 0 mm 5 mps 752 mmHg 47%
15:00 +34°C° 0 mm 5 mps 752 mmHg 46%
16:00 +33°C° 0 mm 4 mps 752 mmHg 51%
17:00 +32°C° 0 mm 4 mps 751 mmHg 56%
18:00 +31°C° 0 mm 3 mps 751 mmHg 61%
19:00 +29°C° 0 mm 3 mps 751 mmHg 61%
20:00 +28°C° 0 mm 3 mps 751 mmHg 61%
21:00 +27°C° 0 mm 3 mps 751 mmHg 61%
22:00 +27°C° 0 mm 3 mps 751 mmHg 62%
23:00 +26°C° 0 mm 3 mps 751 mmHg 62%

10 July, Friday

Time Temperature Precipitation Wind Pressure Humidity
00:00 +26°C° 0 mm 3 mps 751 mmHg 62%
01:00 +25°C° 0 mm 2 mps 751 mmHg 62%
02:00 +25°C° 0 mm 2 mps 752 mmHg 62%
03:00 +25°C° 0 mm 2 mps 752 mmHg 63%
04:00 +25°C° 0 mm 2 mps 752 mmHg 66%
05:00 +24°C° 0 mm 1 mps 752 mmHg 69%
06:00 +24°C° 0 mm 1 mps 753 mmHg 72%
07:00 +25°C° 0 mm 2 mps 753 mmHg 74%
08:00 +25°C° 0 mm 3 mps 753 mmHg 75%
09:00 +26°C° 0 mm 4 mps 753 mmHg 77%
10:00 +25°C° 0 mm 4 mps 754 mmHg 77%
11:00 +25°C° 0 mm 5 mps 754 mmHg 77%
12:00 +24°C° 0 mm 6 mps 754 mmHg 77%
13:00 +24°C° 0.1 mm 6 mps 754 mmHg 77%
14:00 +25°C° 0.1 mm 5 mps 754 mmHg 77%
15:00 +23°C° 0.1 mm 5 mps 754 mmHg 77%
16:00 +23°C° 0 mm 5 mps 755 mmHg 76%
17:00 +23°C° 0 mm 5 mps 755 mmHg 75%
18:00 +23°C° 0 mm 5 mps 755 mmHg 74%
19:00 +22°C° 0 mm 5 mps 755 mmHg 75%
20:00 +21°C° 0 mm 4 mps 756 mmHg 76%
21:00 +20°C° 0 mm 4 mps 756 mmHg 78%
22:00 +20°C° 0 mm 4 mps 756 mmHg 76%
23:00 +20°C° 0 mm 4 mps 757 mmHg 73%

11 July, Saturday

Time Temperature Precipitation Wind Pressure Humidity
00:00 +20°C° 0 mm 5 mps 757 mmHg 71%
01:00 +20°C° 0 mm 5 mps 757 mmHg 74%
02:00 +19°C° 0 mm 5 mps 757 mmHg 77%
03:00 +19°C° 0 mm 5 mps 758 mmHg 80%
04:00 +19°C° 0 mm 5 mps 758 mmHg 79%
05:00 +19°C° 0 mm 5 mps 758 mmHg 78%
06:00 +20°C° 0 mm 5 mps 758 mmHg 78%
07:00 +21°C° 0 mm 5 mps 758 mmHg 73%
08:00 +22°C° 0 mm 5 mps 758 mmHg 68%
09:00 +23°C° 0 mm 6 mps 758 mmHg 63%
10:00 +24°C° 0 mm 6 mps 758 mmHg 60%
11:00 +26°C° 0 mm 6 mps 758 mmHg 57%
12:00 +26°C° 0 mm 6 mps 758 mmHg 54%
13:00 +27°C° 0 mm 6 mps 758 mmHg 54%
14:00 +27°C° 0 mm 6 mps 758 mmHg 53%
15:00 +27°C° 0 mm 6 mps 758 mmHg 53%
16:00 +26°C° 0 mm 5 mps 758 mmHg 57%
17:00 +26°C° 0 mm 5 mps 758 mmHg 61%
18:00 +25°C° 0 mm 4 mps 758 mmHg 65%
19:00 +22°C° 0 mm 4 mps 758 mmHg 69%
20:00 +21°C° 0 mm 4 mps 758 mmHg 74%
21:00 +19°C° 0 mm 3 mps 758 mmHg 79%
22:00 +18°C° 0 mm 3 mps 758 mmHg 81%
23:00 +18°C° 0 mm 3 mps 758 mmHg 84%

12 July, Sunday

Time Temperature Precipitation Wind Pressure Humidity
00:00 +17°C° 0 mm 3 mps 758 mmHg 87%
01:00 +17°C° 0 mm 3 mps 758 mmHg 89%
02:00 +16°C° 0 mm 3 mps 758 mmHg 90%
03:00 +16°C° 0 mm 3 mps 758 mmHg 92%
04:00 +17°C° 0 mm 3 mps 758 mmHg 88%
05:00 +18°C° 0 mm 4 mps 758 mmHg 84%
06:00 +19°C° 0 mm 4 mps 758 mmHg 80%
07:00 +20°C° 0 mm 4 mps 758 mmHg 73%
08:00 +22°C° 0 mm 4 mps 757 mmHg 66%
09:00 +25°C° 0 mm 4 mps 757 mmHg 60%
10:00 +26°C° 0 mm 4 mps 757 mmHg 56%
11:00 +26°C° 0 mm 4 mps 757 mmHg 53%
12:00 +27°C° 0 mm 5 mps 757 mmHg 50%
13:00 +27°C° 0 mm 5 mps 756 mmHg 50%
14:00 +28°C° 0 mm 5 mps 756 mmHg 51%
15:00 +28°C° 0 mm 5 mps 755 mmHg 51%
16:00 +27°C° 0 mm 4 mps 755 mmHg 56%
17:00 +26°C° 0 mm 4 mps 755 mmHg 61%
18:00 +26°C° 0 mm 4 mps 755 mmHg 66%
19:00 +24°C° 0 mm 3 mps 755 mmHg 71%
20:00 +21°C° 0 mm 3 mps 754 mmHg 76%
21:00 +20°C° 0 mm 3 mps 754 mmHg 80%
22:00 +19°C° 0 mm 3 mps 754 mmHg 84%
23:00 +18°C° 0 mm 3 mps 754 mmHg 87%
Show more